,

(GMT )
Banff

Weather History for CWZG - January, 2013

Change the Weather History Date:

Monday, January 21, 2013

  Actual Average Record
Temperature  
Mean Temperature 23 °F -  
Max Temperature 35 °F - - ()
Min Temperature 11 °F - - ()
Degree Days  
Heating Degree Days 42    
Moisture  
Dew Point 14 °F    
Average Humidity 61    
Maximum Humidity 81    
Minimum Humidity 41    
Precipitation  
Precipitation 0.00 in - - ()
Sea Level Pressure  
Sea Level Pressure 30.19 in    
Wind  
Wind Speed 7 mph ()    
Max Wind Speed 13 mph    
Max Gust Speed 20 mph    
T = Trace of Precipitation, MM = Missing Value Source: Averaged Metar Reports

Daily Weather History Graph

Daily Weather History Graph

Search for Another Location

Airport or City:

Trip Planner

Search our weather history database for the weather conditions in past years. The results will help you decide how hot, cold, wet, or windy it might be!

Date:

Astronomy

Jan. 21, 2013 Rise Set
Actual Time 8:33 AM MST 5:14 PM MST
Civil Twilight 7:56 AM MST 5:51 PM MST
Nautical Twilight 7:15 AM MST 6:32 PM MST
Astronomical Twilight 6:35 AM MST 7:11 PM MST
Moon 12:54 PM MST (1/21) 4:07 AM MST (1/21)
Length of Visible Light 9h 55m
Length of Day
8h 40m
Waxing Gibbous, 75% of the Moon is Illuminated
Jan 21
Waxing Gibbous
Jan 26
Full
Feb 3
Last Quarter
Feb 10
New
Feb 17
First Quarter

Hourly Weather History & Observations

Time (MST) Temp. Windchill Dew Point Humidity Pressure Visibility Wind Dir Wind Speed Gust Speed Precip Events Conditions
12:00 AM 11.1 °F - 6.3 °F 81% 30.37 in - NNE 1.2 mph - N/A   Unknown
1:00 AM 17.6 °F 7.3 °F 12.0 °F 79% 30.32 in - SW 8.1 mph - N/A   Unknown
3:00 AM 23.9 °F 14.2 °F 16.5 °F 73% 30.27 in - SW 9.2 mph - N/A   Unknown
4:00 AM 24.6 °F 18.8 °F 16.7 °F 72% 30.27 in - SSW 4.6 mph - N/A   Unknown
7:00 AM 23.5 °F 14.5 °F 15.4 °F 71% 30.25 in - WSW 8.1 mph - N/A   Unknown
8:00 AM 22.6 °F 10.7 °F 15.4 °F 74% 30.24 in - WSW 12.7 mph 18.4 mph N/A   Unknown
9:00 AM 21.7 °F 9.6 °F 14.7 °F 74% 30.26 in - SW 12.7 mph 19.6 mph N/A   Unknown
10:00 AM 23.7 °F 13.3 °F 14.9 °F 69% 30.26 in - WSW 10.4 mph - N/A   Unknown
11:00 AM 26.4 °F 16.6 °F 14.7 °F 61% 30.24 in - SW 10.4 mph 17.3 mph N/A   Unknown
12:00 PM 28.8 °F 19.5 °F 14.4 °F 55% 30.19 in - SW 10.4 mph - N/A   Unknown
1:00 PM 31.5 °F 22.3 °F 14.4 °F 49% 30.14 in - SW 11.5 mph - N/A   Unknown
2:00 PM 33.6 °F 25.0 °F 14.0 °F 45% 30.12 in - SW 11.5 mph - N/A   Unknown
3:00 PM 35.4 °F 28.4 °F 14.0 °F 41% 30.10 in - WSW 9.2 mph - N/A   Unknown
4:00 PM 35.6 °F 28.0 °F 14.0 °F 41% 30.10 in - WSW 10.4 mph 17.3 mph N/A   Unknown
5:00 PM 31.6 °F 24.4 °F 14.7 °F 50% 30.10 in - WSW 8.1 mph - N/A   Unknown
6:00 PM 31.8 °F 23.3 °F 13.8 °F 47% 30.12 in - WSW 10.4 mph 18.4 mph N/A   Unknown
7:00 PM 29.5 °F 20.4 °F 14.5 °F 54% 30.13 in - SW 10.4 mph 18.4 mph N/A   Unknown
8:00 PM 29.3 °F 21.5 °F 14.5 °F 54% 30.14 in - SW 8.1 mph - N/A   Unknown
9:00 PM 27.7 °F 18.8 °F 15.3 °F 60% 30.14 in - SW 9.2 mph - N/A   Unknown
10:00 PM 26.1 °F 16.2 °F 15.4 °F 64% 30.15 in - SW 10.4 mph 18.4 mph N/A   Unknown
11:00 PM 25.2 °F 16.5 °F 15.6 °F 67% 30.16 in - SW 8.1 mph - N/A   Unknown